Location: Krakow
(50.0830°N, 19.9170°E)
Time: 18:07:00
(UTC+01:00)

Vanguard 1 Rocket - Pass Details

Date: 19 December 2023
Orbit: 653 x 4219 km, 34.3° (Epoch: 29 February)

Event Time Altitude Azimuth Distance (km) Brightness Sun altitude
Rises 03:24:18 0° 254° (WSW) 8,292 - -38.8°
Reaches altitude 10° 03:30:10 10° 250° (WSW) 7,392 - -37.9°
Exits shadow 03:44:54 38° 228° (SW) 5,234 10.7 -35.6°
Maximum altitude 03:54:16 51° 185° (S) 4,329 10.6 -34.1°
Drops below altitude 10° 04:11:00 10° 117° (ESE) 5,337 12.0 -31.4°
Sets 04:14:25 0° 112° (ESE) 5,955 12.5 -30.8°
